Satellite-Ground Cal/Val Region Overpasses Predictions

Prediction of Satellite NPP Overpassing Cal/Val Region: PacNW

Region Location: (Latitude: 10.00, Longitude: 139.50) to (Latitude: 22.70, Longitude: 165.60).

Table of predicted overpasses for the next 14.0 days since TLE Epoch: 1/20/2019
Interval Starting Time Starting Location Ending Time Ending Location
1 01/20/2019 15:49:32 ( 22.69, 147.51) 01/20/2019 15:53:08 ( 10.02, 144.49)
2 01/21/2019 02:58:36 ( 10.01, 155.03) 01/21/2019 03:02:12 ( 22.69, 152.02)
3 01/21/2019 15:30:30 ( 22.65, 152.25) 01/21/2019 15:34:05 ( 10.03, 149.25)
4 01/22/2019 02:39:35 ( 10.05, 159.78) 01/22/2019 02:43:10 ( 22.67, 156.78)
5 01/22/2019 15:11:28 ( 22.67, 157.02) 01/22/2019 15:15:03 ( 10.05, 154.02)
6 01/23/2019 02:20:32 ( 10.04, 164.54) 01/23/2019 02:24:07 ( 22.66, 161.54)
7 01/23/2019 14:52:25 ( 22.68, 161.78) 01/23/2019 14:56:01 ( 10.01, 158.77)
8 01/24/2019 03:43:00 ( 10.03, 143.93) 01/24/2019 03:46:35 ( 22.65, 140.93)
9 01/24/2019 14:34:29 ( 18.83, 165.59) 01/24/2019 14:36:59 ( 10.02, 163.53)
10 01/24/2019 16:14:53 ( 22.69, 141.17) 01/24/2019 16:16:49 ( 15.89, 139.51)
11 01/25/2019 03:23:58 ( 10.01, 148.69) 01/25/2019 03:27:34 ( 22.69, 145.68)
12 01/25/2019 15:55:51 ( 22.65, 145.91) 01/25/2019 15:59:26 ( 10.03, 142.91)
13 01/26/2019 03:04:56 ( 10.06, 153.44) 01/26/2019 03:08:31 ( 22.68, 150.44)
14 01/26/2019 15:36:49 ( 22.66, 150.68) 01/26/2019 15:40:24 ( 10.04, 147.67)
15 01/27/2019 02:45:54 ( 10.04, 158.20) 01/27/2019 02:49:29 ( 22.66, 155.20)
16 01/27/2019 15:17:46 ( 22.68, 155.44) 01/27/2019 15:21:22 ( 10.00, 152.42)
17 01/28/2019 02:26:51 ( 10.03, 162.96) 01/28/2019 02:30:26 ( 22.65, 159.96)
18 01/28/2019 14:58:44 ( 22.69, 160.20) 01/28/2019 15:02:20 ( 10.02, 157.18)
19 01/29/2019 02:10:24 ( 19.12, 165.59) 01/29/2019 02:11:25 ( 22.69, 164.71)
20 01/29/2019 03:49:19 ( 10.02, 142.35) 01/29/2019 03:52:43 ( 22.00, 139.51)
21 01/29/2019 14:39:42 ( 22.65, 164.95) 01/29/2019 14:43:17 ( 10.03, 161.95)
22 01/29/2019 16:21:12 ( 22.64, 139.57) 01/29/2019 16:21:16 ( 22.41, 139.51)
23 01/30/2019 03:30:16 ( 10.01, 147.11) 01/30/2019 03:33:52 ( 22.69, 144.10)
24 01/30/2019 16:02:10 ( 22.66, 144.33) 01/30/2019 16:05:45 ( 10.04, 141.33)
25 01/31/2019 03:11:15 ( 10.05, 151.86) 01/31/2019 03:14:50 ( 22.67, 148.86)
26 01/31/2019 15:43:07 ( 22.67, 149.09) 01/31/2019 15:46:42 ( 10.05, 146.09)
27 02/01/2019 02:52:12 ( 10.04, 156.62) 02/01/2019 02:55:47 ( 22.66, 153.62)
28 02/01/2019 15:24:05 ( 22.69, 153.86) 02/01/2019 15:27:41 ( 10.01, 150.84)
29 02/02/2019 02:33:10 ( 10.02, 161.38) 02/02/2019 02:36:45 ( 22.65, 158.38)
30 02/02/2019 15:05:03 ( 22.70, 158.62) 02/02/2019 15:08:39 ( 10.02, 155.60)
31 02/03/2019 02:14:48 ( 12.42, 165.59) 02/03/2019 02:17:43 ( 22.69, 163.13)


NCC Satellite Cal/Val Overpasses Prediction Service
